Find KUIPER-00489

NORAD ID: 68880 Int'l Des: 2026-095S Owner: KUIP Country: US Constellation: amazon-leo operational
LEOCIRCULAR

現在のビュー

3D地球を読み込み中...

About KUIPER-00489

KUIPER-00489 (NORAD 68880) is a amazon-leo constellation satellite launched Apr 28, 2026 by KUIP of US. It operates in LEO, CIRCULAR orbit with a mass of 490.00 kg.

KUIPER-00489について

説明を読み込み中...

次回通過

Passes for default location (London). Set your location on the main map for personalized predictions.

高度履歴

Loading altitude history...

軌道要素

1 68880U 26095S 26166.56933399 .00018111 00000-0 52466-3 0 9998
2 68880 51.8756 250.6836 0011169 307.8611 52.1364 15.35572135 7474
Epoch: Jun 15, 2026 • Age: 18 hours

現在のステータス

高度 468.8 km
速度 7.63 km/s
衛星直下点 -32.43°S, 74.98°E
打ち上げ日 Apr 28, 2026
運用期間 0.1 years
タイプ internet

技術仕様

分類 Payload
質量 490.00 kg
乾燥質量 490.00 kg
総質量 490.00 kg
長さ 1.80 m
直径 0.70 m
スパン 5.00 m
形状 Box + 2 pan
製造者 KUIP
バスタイプ Kuiper
フェーズステータス In Orbit
所有者/国 KUIP/US

Most Searched